This is the latest recevied weather packets stored in our database for station/object DG5MNJ. If no packets are shown the sender has not sent any weather packets the latest 10 day(s).
| Time | Temp. | Humidity | Pressure | Rain* | Wind** | Luminosity | Snow |
|---|---|---|---|---|---|---|---|
| 1777823102 | 25° C | 32% | 1009.3 hPa | 0 mm | - | 208 W/m² | - |
| 1777818002 | 26.11° C | 30% | 1009.6 hPa | 0 mm | - | 546 W/m² | - |
| 1777816802 | 26.67° C | 30% | 1009.9 hPa | 0 mm | - | 694 W/m² | - |
| 1777813802 | 26.11° C | 31% | 1010.4 hPa | 0 mm | - | 728 W/m² | - |
| 1777813202 | 26.11° C | 32% | 1010.5 hPa | 0 mm | - | 812 W/m² | - |
| 1777810823 | 26.11° C | 32% | 1011 hPa | 0 mm | - | 834 W/m² | - |
| 1777809602 | 26.11° C | 32% | 1011.2 hPa | 0 mm | - | 855 W/m² | - |
| 1777800001 | 22.78° C | 39% | 1013.4 hPa | 0 mm | - | 824 W/m² | - |
| 1777798501 | 23.33° C | 38% | 1013.6 hPa | 0 mm | - | 760 W/m² | - |
| 1777797601 | 22.22° C | 42% | 1013.6 hPa | 0 mm | - | 745 W/m² | - |
| 1777793402 | 20.56° C | 43% | 1013.9 hPa | 0 mm | - | 554 W/m² | - |
| 1777792802 | 20.56° C | 44% | 1014.1 hPa | 0 mm | - | 498 W/m² | - |
| 1777791922 | 18.89° C | 50% | 1014.3 hPa | 0 mm | - | 482 W/m² | - |
| 1777791322 | 18.33° C | 49% | 1014.2 hPa | 0 mm | - | 433 W/m² | - |
| 1777790402 | 17.78° C | 50% | 1014.2 hPa | 0 mm | - | 310 W/m² | - |
| 1777790102 | 17.78° C | 50% | 1014.1 hPa | 0 mm | - | 343 W/m² | - |
| 1777787702 | 15° C | 56% | 1014.2 hPa | 0 mm | - | 278 W/m² | - |
| 1777786502 | 15° C | 57% | 1014.3 hPa | 0 mm | - | 213 W/m² | - |
| 1777783802 | 10° C | 68% | 1014.4 hPa | 0 mm | - | 40 W/m² | - |
| 1777781702 | 9.44° C | 70% | 1014.1 hPa | 0 mm | - | 21 W/m² | - |
| 1777779902 | 8.33° C | 68% | 1014.1 hPa | 0 mm | - | 0 W/m² | - |
| 1777773601 | 9.44° C | 68% | 1014.5 hPa | 0 mm | - | 0 W/m² | - |
| 1777771502 | 10.56° C | 63% | 1014.1 hPa | 0 mm | - | 0 W/m² | - |
| 1777770302 | 10.56° C | 62% | 1014.6 hPa | 0 mm | - | 0 W/m² | - |
| 1777765503 | 12.22° C | 54% | 1014.5 hPa | 0 mm | - | 0 W/m² | - |
* Rain latest hour (hover to see other rain measurements)
** Current wind speed in m/s (hover to see current wind gust speed)